Location: Guilderland
(42.7045°N, 73.9115°W)
Time: 21:56:53
(UTC+00:00)

H-2A ROCKET BODY - Pass Details

Date: 24 January 2020
Orbit: 242 x 15397 km, 28.6° (Epoch: 18 February)

Event Time Altitude Azimuth Distance (km) Brightness Sun altitude
Rises 21:50:04 0° 258° (WSW) 11,827 10.0 0.5°
Reaches altitude 10° 22:03:52 10° 253° (WSW) 7,688 9.1 -1.8°
Maximum altitude 22:19:16 31° 201° (SSW) 2,346 5.1 -4.4°
Drops below altitude 10° 22:23:59 10° 138° (SE) 2,292 4.3 -5.2°
Enters shadow 22:26:33 -5° 120° (ESE) 3,107 4.8 -5.7°
